Location: Most
(50.5133°N, 13.6207°E)
Time: 22:16:26
(UTC+02:00)

ISS - Pass Details

Date: 21 September 2024
Orbit: 412 x 424 km, 51.6° (Epoch: 09 October)

Event Time Altitude Azimuth Distance (km) Brightness Sun altitude
Rises 21:17:59 0° 284° (WNW) 2,377 1.4 -21.1°
Reaches altitude 10° 21:20:05 10° 284° (WNW) 1,514 0.1 -21.4°
Enters shadow 21:23:00 63° 277° (W) 479 -3.4 -21.8°
